Wind_Speed
31 32 32 32 31 30 29 27 25 25 24 21 19 17 16 15 15 14 13 12 11 10 10 11 11 11 11 11 11 11 12 13 13 14 14 14 14 14 14 14 14 14 14 14 13 13 13 13 13 14 14 15 15 16 16 16 15 15 15 14 14 14 14 15 15 15 15 15 16 16 17 17 17 17 17 17 17 17 17 16 16 16 16 16 16
30 30 30 31 30 29 29 28 27 27 26 24 22 20 19 18 17 17 15 14 13 13 13 13 14 14 14 14 13 13 13 13 14 14 14 14 14 14 14 15 15 15 15 15 15 15 15 15 14 14 15 15 15 16 16 16 16 16 16 15 15 14 14 14 15 15 15 15 15 16 16 16 17 17 16 16 16 16 16 16 16 16 17 17 17
30 30 30 30 30 29 29 29 29 28 27 26 24 23 21 20 20 19 18 17 16 16 15 15 15 16 16 17 17 16 15 14 14 14 15 15 14 14 14 15 15 16 16 16 16 16 16 16 15 15 15 15 15 15 16 16 16 16 16 15 15 15 15 14 15 15 15 15 15 15 16 16 17 17 17 16 16 15 15 15 15 16 17 18 18
29 30 31 30 30 30 31 30 30 30 29 28 27 25 23 23 22 20 20 19 19 18 17 17 17 17 18 19 19 17 16 14 14 14 14 14 14 14 14 14 15 15 16 16 17 17 17 17 16 16 16 15 15 15 15 16 16 16 16 16 16 15 15 15 15 15 16 16 16 16 16 17 17 17 17 17 16 16 15 15 14 15 15 17 18
27 28 30 30 30 31 32 32 32 32 30 29 28 26 25 24 23 22 22 21 20 20 19 19 18 19 19 20 20 18 16 14 14 13 13 13 13 13 13 14 14 15 15 16 16 17 17 17 17 17 17 16 16 16 16 16 16 16 16 16 16 16 16 16 16 16 16 16 17 17 17 18 18 18 18 18 17 17 16 16 16 15 14 15 16
25 25 27 29 31 31 32 33 33 32 30 29 28 27 26 25 24 23 22 22 21 22 21 21 20 20 20 20 19 18 16 14 12 12 12 12 12 12 13 13 13 14 14 15 16 16 17 17 17 17 17 17 17 17 17 17 17 17 17 17 17 17 17 17 17 17 17 16 17 17 18 18 19 19 19 19 18 18 18 18 17 17 17 17 16
26 25 25 26 29 31 32 33 33 31 29 28 27 27 27 26 24 24 23 23 23 23 23 22 21 20 20 19 18 17 16 13 12 12 11 12 12 12 12 13 13 13 14 15 16 16 17 17 17 17 17 18 18 18 18 18 18 18 18 18 18 18 18 18 18 18 18 17 18 18 18 19 19 19 19 19 19 19 19 19 19 20 21 20 19
27 26 25 25 27 29 30 31 31 30 28 26 27 27 27 27 25 25 24 25 24 24 23 22 21 20 20 19 17 17 16 14 13 12 11 12 12 12 13 13 13 14 15 15 16 17 17 17 18 18 18 18 18 18 18 18 19 19 19 19 19 19 19 19 19 19 19 19 19 19 19 19 19 19 19 20 20 21 21 21 22 22 22 22 21
29 27 26 26 26 27 28 29 29 29 28 27 27 27 28 27 26 25 26 26 25 24 23 22 21 21 21 19 17 16 15 14 13 12 12 12 12 12 12 13 13 14 15 16 17 18 18 18 18 18 19 19 19 19 19 20 20 20 20 20 20 20 20 20 20 20 20 20 20 21 21 21 20 20 19 20 21 22 23 23 23 23 23 22 22
30 29 29 28 26 25 26 27 27 28 28 27 26 26 27 27 26 26 26 25 24 24 23 23 22 22 21 19 17 15 14 13 13 12 11 11 11 12 12 12 13 14 15 16 17 18 18 18 19 19 19 20 20 20 20 21 21 21 21 21 21 22 22 22 22 22 22 22 22 22 23 22 22 21 20 20 21 23 25 25 24 23 22 21 22
33 31 30 29 27 25 25 26 26 27 27 27 26 25 26 26 26 26 26 25 25 24 24 24 23 22 19 17 15 13 12 11 12 12 11 11 11 11 11 12 13 13 14 15 16 17 17 17 18 18 19 19 20 20 20 21 21 22 22 22 22 23 23 23 23 23 24 24 24 24 24 24 24 23 22 21 22 24 26 26 24 22 20 20 21
36 34 32 30 28 27 26 26 27 27 28 28 27 26 25 25 26 26 26 25 24 25 24 23 22 20 18 16 13 11 9 10 11 11 10 9 9 9 10 11 12 12 13 14 14 15 16 16 17 18 19 19 20 20 20 21 21 21 22 22 23 24 24 24 24 25 25 26 26 26 25 24 24 24 24 23 23 25 26 25 23 20 19 19 21
39 37 34 32 30 29 28 28 28 29 29 29 28 27 26 25 25 25 24 23 23 23 23 22 20 19 17 15 12 9 9 10 10 9 8 8 8 8 9 10 11 12 12 13 14 14 15 16 18 19 19 20 20 21 22 22 22 22 22 22 23 24 24 25 25 26 27 28 27 26 26 25 24 24 26 26 25 24 24 24 22 20 19 19 21
41 39 37 34 34 33 32 31 31 31 31 30 29 29 28 26 24 23 22 21 21 20 19 18 17 16 16 14 12 10 9 9 9 8 8 7 7 8 9 10 11 12 12 13 14 14 15 16 18 19 20 21 22 22 23 24 23 22 22 23 24 25 25 26 27 29 29 29 28 26 26 26 26 26 28 28 26 24 23 22 21 21 21 21 21
41 39 36 35 34 34 34 34 35 34 33 32 31 31 30 28 25 23 22 20 19 18 16 16 16 16 15 14 13 11 10 9 9 9 8 7 8 8 9 9 11 12 13 13 14 14 15 16 18 19 20 22 23 24 25 25 24 23 23 23 24 25 25 26 28 30 29 28 27 26 26 28 29 29 28 28 27 26 24 23 22 23 23 23 22
39 37 34 32 33 35 36 37 38 38 37 35 34 34 34 32 28 25 23 22 20 19 18 17 16 16 16 15 15 14 11 10 10 10 9 8 9 9 9 10 11 12 12 13 14 14 15 16 18 19 20 21 22 24 26 26 25 23 23 23 23 24 24 26 29 30 28 27 27 27 27 28 29 29 28 28 28 28 28 26 25 26 25 25 24
37 36 34 33 34 36 38 40 42 42 41 39 38 38 37 35 32 28 26 25 23 22 20 19 18 18 18 18 18 16 13 11 12 12 10 10 10 9 9 9 11 11 12 13 14 14 15 16 17 18 20 21 22 24 26 27 26 24 23 23 23 22 22 25 29 29 28 28 28 28 27 28 29 29 29 30 30 30 30 29 28 28 28 28 27
44 42 42 42 43 41 41 43 45 46 46 44 43 41 39 36 33 30 28 28 27 25 23 21 21 21 21 21 21 18 15 13 14 13 12 11 12 11 9 10 10 11 11 12 14 15 15 16 17 18 19 20 22 24 26 28 27 25 24 24 24 22 21 25 28 28 28 28 28 29 29 29 29 29 30 30 31 31 31 30 30 30 30 30 30
54 52 51 51 51 49 48 48 49 50 50 48 46 43 40 37 35 33 32 31 29 27 25 24 24 24 24 23 22 20 17 16 16 15 13 13 13 12 11 11 11 10 10 12 14 15 16 16 17 18 19 20 21 23 26 28 28 26 25 25 24 22 22 25 28 28 28 28 29 29 30 29 29 29 29 29 30 30 30 30 30 30 31 30 30
60 59 57 56 55 53 52 52 52 52 51 49 47 45 43 40 37 36 34 33 31 29 28 27 27 26 25 24 23 22 19 17 17 16 14 14 15 14 13 13 12 11 11 12 14 15 16 17 18 19 19 20 21 22 25 27 28 27 25 24 24 23 24 26 29 29 29 29 30 30 30 29 28 28 28 28 28 28 28 28 28 29 30 30 29
63 62 59 58 57 55 53 54 54 53 51 50 48 47 45 43 40 38 36 34 32 32 31 30 29 28 27 26 25 24 21 18 17 16 15 15 16 16 15 15 13 12 13 13 14 16 17 17 18 19 20 21 21 22 24 26 28 28 26 24 24 23 24 26 28 29 30 30 30 31 30 29 28 27 26 26 26 27 27 27 27 28 29 29 29
64 64 60 58 57 54 51 51 54 55 54 52 51 49 47 44 42 39 37 35 33 34 34 32 31 29 28 28 27 26 21 18 16 16 16 16 16 16 17 17 15 14 15 15 15 16 17 18 18 19 20 21 21 22 23 25 27 27 25 24 23 23 24 26 27 29 30 30 31 30 29 29 28 27 25 26 26 27 28 28 28 28 29 29 30
64 65 62 58 57 53 49 48 53 57 57 55 54 52 49 46 43 42 40 37 35 35 35 33 32 30 29 29 30 27 22 18 16 16 16 16 17 17 18 17 16 16 17 17 16 16 17 18 18 19 21 22 22 22 22 23 25 24 23 22 22 22 23 25 27 28 29 30 30 30 29 28 28 26 25 26 27 28 29 29 29 29 29 29 30
64 66 65 61 57 53 49 46 49 58 62 59 56 55 52 48 46 44 43 41 38 36 35 34 33 31 30 30 31 29 25 20 18 18 17 17 18 18 18 18 17 17 18 19 19 18 18 18 18 20 21 22 22 22 22 22 22 21 21 21 22 21 21 23 25 27 28 29 29 29 28 27 26 26 26 26 27 28 29 29 29 29 29 29 29
68 67 67 65 61 56 52 49 49 56 63 63 60 58 54 51 49 47 45 44 41 38 36 35 35 34 32 31 32 31 28 25 22 21 20 19 20 20 20 19 18 18 20 21 20 20 19 19 20 22 23 23 23 23 23 22 21 20 20 21 21 20 20 21 23 25 26 27 27 27 26 25 25 25 25 25 25 25 27 28 29 28 27 28 28
73 71 68 69 67 62 60 61 59 58 61 64 63 60 56 53 51 48 46 45 43 40 38 38 38 37 36 34 34 33 31 29 27 26 24 23 23 23 22 21 20 20 21 22 21 20 20 20 22 24 25 24 24 25 24 23 22 21 21 21 21 21 21 20 20 22 23 24 24 25 25 25 24 24 23 24 23 23 25 27 28 28 28 29 29
78 77 72 71 72 68 65 67 67 63 62 64 64 61 58 55 52 50 48 46 45 43 41 40 41 41 41 39 36 34 33 32 31 30 29 28 27 26 25 25 24 23 22 22 22 21 21 22 25 27 27 26 26 26 26 25 24 23 24 24 23 23 23 21 20 20 21 21 22 23 24 24 24 24 23 23 23 23 25 27 28 29 30 30 30
81 82 78 75 75 73 68 66 67 66 65 65 65 64 61 57 54 52 50 49 47 45 43 42 42 43 43 42 39 36 35 34 34 33 31 29 29 28 27 28 28 26 23 22 22 23 23 25 27 28 28 28 28 28 28 27 26 26 27 27 26 26 26 25 22 19 19 19 19 22 24 25 24 24 24 24 24 24 25 26 28 30 31 30 29
83 84 84 80 78 76 71 68 67 67 67 68 68 66 64 60 57 55 53 51 50 48 45 44 44 44 44 43 41 38 37 37 35 34 32 31 30 29 29 30 31 30 27 25 23 24 25 27 28 28 28 29 30 30 30 29 27 28 30 29 29 30 30 29 26 22 18 17 18 22 25 25 25 25 24 24 25 25 26 27 28 30 31 30 29
87 86 87 85 81 78 74 71 68 66 66 69 71 69 66 63 61 58 56 54 52 51 48 47 47 46 45 44 43 41 40 39 37 35 34 34 33 31 30 31 33 33 32 29 27 27 28 27 28 29 29 29 29 31 32 31 29 30 32 32 32 33 34 33 30 26 23 20 22 26 25 23 26 31 32 30 28 26 27 27 28 31 32 32 30
92 90 90 89 86 82 78 75 71 67 66 69 72 71 69 66 64 62 60 58 56 54 53 51 50 49 47 46 45 44 42 41 39 37 37 36 36 34 34 35 35 35 34 31 30 32 31 28 29 31 31 30 29 31 33 33 32 32 33 34 34 35 36 35 31 28 29 27 26 28 26 22 24 32 38 37 31 28 27 28 28 30 32 32 31
95 93 93 92 90 85 81 78 75 71 68 69 71 72 70 68 66 65 64 62 60 58 56 55 54 52 50 49 48 46 44 43 41 40 39 38 38 38 38 38 38 36 34 33 35 36 33 30 31 32 33 33 32 31 32 34 34 34 35 36 34 33 34 33 31 30 30 30 28 26 23 20 19 23 33 37 33 27 27 27 27 28 29 30 32
97 95 94 94 93 89 84 81 78 75 71 70 71 73 71 70 69 67 66 65 64 62 60 58 57 56 54 53 51 49 47 44 41 41 41 40 38 39 39 39 39 37 36 36 37 35 33 32 34 33 34 36 36 34 33 35 36 36 37 37 36 33 32 32 32 31 29 29 28 25 20 16 16 19 28 35 31 25 25 26 26 25 25 27 31
99 97 95 94 95 93 89 86 83 80 77 74 74 74 74 73 71 69 67 67 66 65 64 62 59 58 57 56 53 51 49 46 44 43 43 40 37 38 39 39 38 38 38 38 36 35 35 36 36 35 35 36 38 36 35 35 37 38 39 40 39 36 34 33 34 33 30 28 28 27 24 20 18 20 27 33 30 25 24 25 25 24 23 24 28
101 99 96 94 94 96 95 93 89 85 82 79 76 75 75 75 74 72 71 69 67 66 65 64 61 59 58 57 55 53 51 49 47 46 44 41 38 38 39 39 36 35 36 37 37 37 38 39 38 36 36 37 38 38 38 38 38 39 41 43 42 39 36 35 34 33 31 30 30 30 29 26 22 22 26 29 27 24 24 26 26 25 23 24 27
104 101 98 95 93 95 97 97 94 89 85 82 79 77 77 77 76 75 74 72 70 67 66 65 63 61 59 58 57 55 53 52 50 47 44 41 39 39 41 41 39 36 35 36 38 40 42 42 40 38 37 38 38 39 39 40 40 41 44 45 44 41 39 37 36 35 33 33 33 34 34 34 31 31 31 29 27 26 27 29 29 27 25 26 29
108 104 101 97 94 94 96 97 97 93 89 84 81 80 79 78 76 75 74 72 71 69 67 66 64 62 60 60 60 59 56 53 50 47 43 41 40 41 43 45 45 42 39 38 40 43 46 45 42 38 37 38 39 40 40 40 41 43 45 45 44 42 42 42 42 41 38 37 35 35 37 39 39 38 36 33 31 31 32 32 31 30 31 34 35
112 108 105 101 97 96 97 98 98 96 92 88 84 82 81 80 78 75 74 72 71 69 68 66 65 64 63 63 63 61 57 52 48 47 44 41 41 43 44 44 45 46 45 44 44 46 47 45 41 38 38 40 41 42 42 41 42 44 46 45 45 44 44 45 46 44 41 38 36 35 36 39 40 39 37 36 35 35 35 35 33 32 35 39 38
117 114 110 106 103 100 99 98 98 97 95 92 89 85 83 80 79 77 75 74 72 71 69 68 67 66 65 65 64 62 56 51 48 47 45 43 43 45 45 43 42 44 46 46 45 44 44 43 41 40 41 42 43 44 44 44 45 47 47 47 49 48 46 44 45 45 43 41 39 39 38 37 37 37 37 38 39 39 39 40 40 39 39 40 40
118 119 118 115 111 106 102 99 98 97 96 94 92 90 87 84 82 80 79 78 77 74 73 71 71 69 66 64 62 59 55 51 50 49 47 44 44 46 47 45 43 43 44 44 42 41 41 42 42 42 43 44 44 45 46 47 48 49 49 49 51 51 48 44 44 46 47 46 45 45 43 42 40 39 37 37 41 43 42 43 46 45 43 43 43
118 119 120 120 119 116 110 105 101 99 97 95 94 92 91 89 86 84 83 82 82 80 77 75 74 72 69 64 61 59 56 54 53 51 49 46 46 48 48 47 45 45 45 44 42 40 40 42 43 45 46 46 46 48 50 49 49 50 52 52 53 53 51 47 46 47 50 51 49 47 46 46 45 43 40 40 45 48 45 44 45 45 44 46 47
120 119 118 119 120 120 118 114 109 104 100 98 96 95 94 92 90 87 85 84 83 82 80 79 77 75 73 70 67 64 61 59 57 55 52 50 50 50 50 49 48 48 48 45 42 41 41 42 44 46 47 48 49 51 53 52 51 52 54 56 55 55 53 51 51 53 54 53 51 50 50 50 49 47 47 48 49 48 45 43 44 45 47 48 49
122 120 118 118 118 118 119 118 116 112 107 103 99 98 97 95 92 90 88 87 85 83 82 81 79 78 77 76 74 71 68 66 63 60 57 54 53 52 51 50 50 50 49 47 46 46 44 44 45 47 49 51 52 53 54 53 50 49 54 58 58 57 57 57 57 58 58 56 53 51 52 51 49 49 51 51 48 47 46 46 47 48 49 51 53
123 121 120 119 119 118 117 117 117 116 114 110 105 102 100 99 97 94 92 90 89 87 85 84 82 81 80 79 78 76 73 70 66 63 60 58 56 54 52 50 50 51 51 52 54 54 50 48 48 49 51 54 55 55 55 51 45 44 53 59 60 61 63 64 62 59 59 58 55 51 50 49 49 50 52 50 48 49 50 51 52 54 56 58 59
125 123 122 122 121 120 118 117 116 115 115 114 111 108 105 103 101 99 97 95 93 91 90 88 87 85 83 82 81 79 76 72 68 65 62 60 58 57 54 51 51 55 56 56 56 57 54 52 52 52 54 57 59 57 55 50 44 43 50 58 62 64 66 66 65 63 62 61 58 56 54 51 49 49 51 51 51 53 54 56 59 62 63 63 64
127 125 124 124 123 121 119 118 117 116 115 115 114 113 111 108 105 103 101 99 97 96 95 94 92 90 88 86 84 81 78 74 70 67 65 63 61 59 57 54 53 56 58 57 56 58 58 58 58 58 61 63 62 58 54 51 47 47 51 57 62 65 67 69 69 68 67 65 64 64 62 57 50 49 52 55 57 59 61 63 65 66 67 67 67
128 127 126 125 124 122 120 119 118 117 116 115 114 114 113 112 110 107 105 103 101 100 99 98 97 95 92 90 88 85 81 77 73 71 69 66 63 62 61 59 57 57 59 58 56 56 58 60 61 63 64 64 59 52 50 49 47 47 50 54 57 61 67 71 73 73 72 70 69 69 68 65 61 59 60 62 63 65 66 67 69 70 70 71 70
129 128 128 126 125 123 121 120 119 119 118 116 114 113 112 111 111 110 109 108 106 104 103 102 100 98 96 93 91 88 84 80 77 73 70 67 65 64 64 61 57 55 57 56 53 54 58 64 66 66 65 60 51 42 40 43 45 47 49 52 54 56 58 61 66 70 73 75 76 76 74 72 69 67 67 67 67 69 70 71 72 73 74 74 74
129 128 128 128 127 125 123 122 121 120 120 118 116 113 111 110 109 109 108 108 108 107 105 103 101 99 97 95 93 90 86 83 78 74 70 68 66 64 62 60 57 55 54 52 51 54 60 64 64 62 59 57 53 50 47 48 50 52 54 57 61 63 62 60 62 66 70 73 76 78 77 74 71 71 71 71 71 73 74 75 76 77 78 79 79
128 128 129 129 128 127 126 124 123 122 121 120 117 115 112 111 109 108 107 106 105 105 104 102 99 97 95 93 92 90 88 84 80 77 73 70 68 66 64 62 60 57 55 53 52 55 59 62 63 63 63 64 67 69 68 64 61 59 59 61 65 69 73 73 71 70 71 72 73 73 73 73 73 75 75 75 76 77 78 80 81 82 83 83 83
128 128 129 130 130 129 128 126 125 123 122 121 119 117 114 112 110 109 108 106 105 103 102 100 98 96 95 92 91 91 89 86 83 79 75 73 71 69 67 65 62 57 55 55 54 53 56 60 64 66 66 67 69 71 71 70 67 65 64 65 66 69 74 78 78 75 74 74 73 71 72 73 76 77 78 79 80 81 82 84 85 86 86 86 87
Wind_Direction
220 220 220 222 224 226 228 229 227 228 229 230 229 231 233 237 242 246 250 255 265 275 282 289 295 301 307 313 318 322 325 328 329 330 329 330 331 332 333 334 336 338 340 342 343 345 346 347 347 348 347 347 347 347 348 350 352 354 356 359 1 1 1 2 5 10 12 13 13 13 14 15 14 13 13 12 11 9 5 0 356 352 350 351 352
221 221 220 222 224 226 227 228 228 228 230 231 231 233 234 237 242 245 249 254 259 265 271 279 286 293 299 305 308 311 314 317 320 321 322 323 323 325 325 326 328 329 331 334 336 338 340 342 343 344 345 345 344 344 344 345 347 349 351 353 354 356 357 357 358 0 3 6 7 7 7 7 7 7 7 7 7 6 3 358 353 350 350 349 348
222 221 220 221 223 226 227 228 229 229 230 232 234 235 236 239 242 246 249 253 256 260 265 271 279 287 294 299 301 303 304 308 311 313 315 317 319 320 320 321 323 325 326 328 330 333 335 337 338 339 340 341 341 340 340 340 341 343 345 347 348 349 351 352 353 354 355 357 358 359 359 360 360 360 0 360 359 358 357 356 353 351 349 347 345
223 222 221 221 221 223 226 228 230 231 231 232 235 237 238 241 245 248 251 255 259 262 266 270 275 282 288 293 295 296 298 301 303 306 310 313 316 317 319 321 322 323 324 325 327 328 330 332 333 334 335 336 336 336 336 336 336 337 338 340 341 343 345 347 348 349 349 349 350 351 352 352 353 353 353 352 351 349 348 349 350 350 348 344 339
228 224 222 222 222 223 224 227 230 231 232 233 235 238 239 242 245 248 252 257 261 265 269 272 275 279 283 286 289 290 292 295 298 302 306 310 314 316 318 321 322 323 324 324 325 326 327 328 328 329 330 331 331 331 332 332 332 332 333 334 335 337 339 341 342 343 344 344 343 344 345 346 346 346 345 345 344 343 341 340 341 341 340 339 336
235 231 226 224 224 225 226 229 232 233 232 233 235 238 241 244 247 249 252 257 262 266 269 273 276 279 280 281 282 284 286 288 292 297 301 305 308 312 315 318 320 321 322 322 323 323 323 324 324 324 325 325 327 327 327 328 328 328 329 330 331 333 334 335 337 338 339 339 339 338 339 339 340 339 338 338 338 336 335 334 334 334 332 333 331
241 238 233 228 227 228 230 233 236 238 237 236 237 240 243 246 248 251 253 256 260 263 268 272 275 277 276 276 277 279 281 283 286 290 294 298 302 306 310 313 315 317 317 318 318 318 319 319 320 320 320 320 321 322 323 323 323 324 325 326 327 328 329 329 330 331 332 332 332 332 332 333 334 333 332 332 332 332 330 329 329 330 331 331 329
243 242 239 234 231 231 233 236 239 242 242 241 241 243 245 247 248 250 252 254 256 260 264 268 270 270 270 270 272 274 277 280 283 285 289 293 298 301 305 309 311 313 314 314 314 314 313 313 314 315 315 315 316 316 317 318 318 319 320 321 322 323 324 324 324 325 325 326 326 327 327 328 329 329 328 327 327 327 328 328 327 329 332 334 333
239 241 241 238 235 232 234 236 239 242 244 243 243 244 246 247 247 248 249 251 253 256 259 261 262 262 262 264 267 270 274 279 282 285 289 292 296 300 304 308 310 311 313 313 313 312 311 311 311 311 311 311 311 312 313 313 313 314 316 317 318 318 319 320 320 321 321 321 322 323 324 325 326 326 325 324 324 324 326 327 328 329 331 334 337
233 235 238 239 236 233 233 235 238 240 242 242 241 241 242 243 243 243 243 245 247 249 251 252 253 254 256 259 263 267 272 278 282 286 289 293 298 302 307 309 310 311 313 313 313 312 313 314 313 311 310 309 309 309 310 309 310 311 313 315 316 316 316 317 317 318 318 319 321 322 324 324 324 324 323 323 324 324 324 325 328 330 332 334 336
227 229 234 238 238 235 232 232 235 238 240 240 240 239 239 239 239 239 238 238 239 240 242 245 248 250 253 256 259 263 269 275 281 285 289 295 301 306 309 310 310 312 312 313 313 313 314 314 312 311 309 307 306 306 305 305 305 307 309 311 312 313 313 314 314 315 316 318 320 321 322 322 322 321 321 323 324 323 323 325 328 330 333 336 337
224 225 227 232 237 237 233 229 230 234 237 239 239 239 239 239 238 238 239 238 237 237 238 241 244 248 251 253 254 257 262 269 274 280 287 296 304 308 310 311 312 314 314 314 315 314 314 313 310 308 307 305 304 303 301 301 301 303 305 307 308 310 310 311 311 312 314 317 318 319 320 319 319 318 319 322 323 323 323 325 327 329 333 337 338
224 224 225 226 230 233 231 227 226 229 234 238 240 240 239 239 239 239 240 240 240 239 240 241 244 247 250 252 252 251 252 259 266 275 285 294 302 307 310 312 315 318 319 319 318 317 317 315 313 311 309 307 306 304 303 303 304 304 304 305 305 307 308 309 308 308 310 312 314 316 316 315 316 317 317 319 320 321 322 324 324 325 329 333 334
224 225 225 226 228 229 228 225 223 224 228 233 239 243 243 241 240 241 242 243 243 244 246 247 248 250 250 251 251 249 248 253 263 272 280 288 296 303 308 315 320 324 326 327 326 325 323 320 319 317 314 313 312 311 309 308 309 311 310 308 307 307 307 307 305 305 306 309 311 312 311 311 312 313 314 315 316 317 319 321 322 322 323 326 327
225 227 229 232 235 235 233 230 226 224 224 226 231 239 244 244 242 241 241 244 247 251 254 253 252 253 253 253 253 252 251 254 261 269 277 282 289 298 308 318 323 327 332 334 334 332 328 325 324 323 320 321 320 318 315 315 316 318 317 315 313 311 311 308 304 303 306 310 311 310 308 307 307 309 311 312 313 313 314 316 317 317 318 320 322
229 230 233 237 242 246 245 242 237 233 229 227 227 231 237 241 241 239 239 241 245 248 250 251 251 253 256 258 257 255 253 255 261 267 272 277 283 295 308 316 321 326 333 336 334 332 330 330 330 329 328 327 325 322 319 319 321 323 322 320 318 317 317 312 306 305 310 313 311 310 308 306 306 308 310 310 310 310 311 313 314 314 313 315 317
233 233 233 235 238 243 247 248 246 242 236 231 229 228 231 235 237 238 236 237 239 241 243 246 247 249 251 253 255 255 254 254 259 265 269 274 281 292 305 312 317 324 330 330 328 329 331 332 334 334 334 331 327 324 322 322 325 326 324 321 319 321 321 312 306 309 313 313 312 311 310 308 308 310 310 310 310 311 312 313 313 312 311 312 312
224 225 226 226 225 228 233 239 244 245 240 235 232 229 229 231 234 235 235 235 236 238 239 241 242 244 246 248 252 255 255 254 257 262 267 272 280 290 301 309 314 321 325 323 322 326 330 332 333 335 338 336 331 328 325 326 328 329 325 322 322 324 321 310 306 311 313 312 312 311 311 312 313 313 314 315 315 315 315 314 313 311 310 310 310
216 217 220 221 220 219 221 225 232 238 240 238 235 232 230 230 231 232 233 234 236 237 238 239 241 242 245 248 250 253 254 254 257 264 267 271 278 289 299 307 316 323 322 318 320 324 327 328 330 334 339 338 334 331 329 329 331 331 327 324 324 324 317 309 309 313 314 313 313 312 314 316 317 317 319 320 320 319 318 317 315 312 310 310 309
215 215 217 219 220 220 221 224 228 234 238 239 238 236 233 231 231 231 233 235 238 239 240 241 242 242 245 248 249 250 250 250 256 264 269 273 280 290 297 306 317 324 319 317 320 322 324 325 327 331 335 337 336 335 332 331 333 334 331 326 324 321 315 311 313 315 315 314 313 314 317 319 319 320 323 323 321 320 319 318 316 313 311 311 309
217 216 217 218 219 221 224 227 230 235 239 240 240 239 237 235 233 233 234 237 240 241 242 243 243 242 243 246 248 247 245 245 250 260 268 274 281 290 297 305 315 318 316 317 321 321 321 322 324 327 328 331 334 335 334 333 333 335 333 329 324 321 317 314 315 315 315 314 313 315 318 319 319 323 325 323 321 320 319 318 317 315 314 313 312
219 218 218 219 220 222 227 233 235 237 239 240 240 240 240 239 238 237 237 239 242 243 243 244 244 242 242 244 246 246 244 242 244 251 261 270 277 284 293 302 310 312 312 316 319 319 318 318 320 322 322 324 329 332 332 332 334 335 335 332 328 324 321 318 317 316 315 314 314 316 317 318 321 323 323 323 322 322 322 323 322 321 321 320 319
220 220 220 219 219 221 227 235 239 238 238 239 239 239 239 239 239 240 241 242 244 245 244 244 244 243 242 244 245 247 247 246 246 249 256 264 271 277 285 297 307 308 307 309 313 314 313 314 314 314 315 317 321 325 327 329 331 334 335 334 331 329 326 322 319 317 315 315 315 315 316 318 321 322 322 324 325 327 328 328 327 326 327 327 327
220 221 221 220 218 218 222 231 238 238 236 237 238 238 238 238 238 239 241 242 243 244 243 242 242 242 242 243 244 247 252 256 259 261 260 262 268 272 278 291 304 306 302 302 307 311 311 311 308 306 307 311 314 317 320 323 326 328 330 330 330 330 329 325 321 317 317 316 315 315 317 319 320 321 321 323 326 329 330 329 328 328 328 329 331
218 220 221 220 218 217 219 225 233 236 234 233 236 237 237 238 237 237 238 240 241 241 241 240 240 241 241 242 244 246 252 260 268 273 272 270 271 274 277 286 298 300 297 300 309 315 315 310 303 300 302 306 308 309 311 315 317 318 320 322 325 327 327 325 322 319 317 317 315 315 317 320 320 321 323 324 327 329 329 328 329 329 328 329 334
216 218 219 219 218 219 220 222 227 232 232 230 233 235 236 237 239 238 238 238 239 240 240 239 238 238 240 242 244 246 251 258 267 275 278 278 280 283 283 283 286 289 294 303 312 317 315 308 299 297 299 302 303 303 305 308 309 308 307 310 317 324 323 320 320 320 319 318 318 319 321 322 322 323 325 327 329 330 330 332 333 331 329 331 336
216 217 217 217 218 220 223 224 226 230 231 229 230 233 235 236 238 239 239 238 238 239 240 239 238 239 240 243 246 248 252 259 265 271 276 281 285 287 285 280 280 285 294 305 311 313 311 305 297 295 297 298 298 299 300 301 302 301 299 300 307 317 319 315 313 318 322 322 323 326 327 326 326 327 327 328 329 330 334 339 339 334 332 334 335
216 217 216 215 216 220 224 226 227 229 229 229 229 231 233 235 236 237 237 237 238 239 241 241 241 241 242 245 249 251 255 259 263 268 274 279 282 283 281 280 281 286 294 302 307 308 305 300 296 294 294 294 294 295 295 296 297 296 294 294 298 305 312 311 305 309 322 328 333 340 342 338 335 332 329 329 330 330 335 342 343 339 336 334 331
216 217 217 216 217 220 224 227 228 229 229 229 229 230 232 233 234 235 236 237 237 239 241 243 244 244 244 246 249 252 255 258 261 266 270 272 274 277 279 280 282 287 293 298 302 301 298 297 296 294 292 292 292 291 290 291 293 291 289 292 294 296 302 305 300 295 304 320 335 344 348 350 348 342 334 331 331 331 336 343 346 345 341 335 330
217 218 218 217 217 220 223 226 228 229 229 228 228 229 231 232 233 235 237 237 237 238 240 242 244 245 245 246 248 251 253 256 260 264 264 265 271 277 279 279 282 288 293 296 295 293 292 295 299 300 297 294 292 289 288 287 288 288 288 290 292 291 293 298 297 289 286 297 318 329 334 344 353 349 341 335 332 331 335 343 348 349 345 339 333
218 218 218 218 217 218 221 224 226 228 229 227 227 229 230 231 233 235 237 238 239 238 238 240 243 244 245 245 247 250 252 256 260 262 263 266 273 278 280 282 284 289 293 293 290 289 290 297 306 308 306 301 296 291 287 285 285 286 286 286 288 291 293 298 299 292 283 284 300 313 314 316 328 334 332 330 330 332 336 342 347 349 348 343 337
219 219 219 219 217 217 219 222 225 228 229 227 227 228 230 231 233 234 236 238 239 239 239 240 242 244 245 246 247 249 252 256 260 262 265 269 274 279 283 287 289 291 292 290 287 288 291 299 309 312 310 306 302 297 290 284 283 282 281 282 288 294 297 300 301 296 287 282 288 300 303 293 289 304 315 318 320 328 335 339 343 345 348 349 344
219 220 220 220 219 218 219 221 224 227 228 228 228 229 229 231 233 234 235 238 240 241 241 241 243 245 245 246 248 249 251 255 258 261 264 268 274 279 286 291 293 293 290 287 286 287 292 299 306 310 310 307 304 300 293 285 280 278 278 281 286 291 293 294 293 290 286 282 281 286 291 285 275 286 300 304 307 319 331 335 338 339 342 348 347
219 221 221 220 220 220 220 221 223 226 229 230 230 230 230 231 232 234 235 237 239 241 241 242 245 247 246 246 247 248 249 251 253 257 261 265 271 276 282 288 292 292 289 286 286 287 293 297 300 305 308 307 303 300 295 287 281 278 277 278 280 283 287 289 286 281 277 276 276 276 276 276 276 283 288 290 295 309 323 329 330 328 328 336 342
219 220 221 220 220 221 221 222 224 226 228 229 230 230 230 231 232 233 234 235 237 239 241 243 245 247 245 244 246 247 248 249 251 256 262 266 268 271 276 282 287 289 286 283 282 286 292 294 294 297 304 305 302 298 295 290 283 278 275 274 276 279 280 280 279 276 274 275 278 275 269 268 278 291 291 287 289 301 313 320 323 319 316 323 332
218 219 220 220 220 221 222 223 224 226 228 228 229 230 230 230 231 232 233 235 237 238 240 242 244 246 245 244 244 246 247 249 253 259 265 269 272 276 279 281 283 284 280 277 278 284 290 291 289 291 299 303 299 296 295 293 287 279 273 272 273 272 271 271 272 272 274 276 278 275 267 266 279 296 299 294 293 299 305 311 316 315 311 314 320
217 218 219 219 220 221 222 223 224 226 227 227 228 229 229 229 231 232 234 235 236 237 238 240 242 244 244 243 243 244 247 251 256 261 267 272 277 281 282 283 284 283 278 273 274 281 287 289 286 286 294 298 296 295 296 295 289 280 274 271 269 269 270 272 273 274 276 278 277 273 267 265 274 288 297 298 297 299 300 304 311 312 309 309 311
216 217 218 219 219 220 222 223 224 225 227 228 228 229 229 229 230 232 233 234 234 236 238 240 241 243 243 242 242 244 247 252 258 263 267 271 275 278 280 283 284 282 278 274 275 280 284 285 283 284 290 295 296 296 298 297 290 282 275 272 270 268 268 269 271 273 276 277 276 274 269 265 269 282 294 299 298 297 298 301 304 305 303 303 304
217 217 217 218 218 219 221 222 223 224 226 228 229 230 230 230 230 231 232 232 234 236 239 240 241 242 243 243 243 244 247 252 257 262 267 270 273 276 279 281 282 282 279 278 279 279 280 281 282 285 291 295 297 297 297 297 294 288 279 273 269 267 267 268 269 269 269 271 275 277 272 264 266 281 296 301 298 297 297 298 298 298 299 299 299
218 218 218 219 220 220 221 222 223 224 225 227 228 230 230 231 231 231 231 232 234 237 239 240 241 242 243 244 244 246 248 251 256 262 267 270 273 276 278 278 279 281 281 280 280 278 278 279 283 287 292 296 299 298 296 297 298 293 284 275 270 269 269 269 268 267 266 268 273 277 272 264 268 282 295 297 292 289 288 289 291 294 297 298 298
220 219 220 221 222 223 223 223 223 224 225 226 228 229 230 231 232 232 233 234 235 237 239 240 241 242 243 245 246 248 249 251 256 263 268 270 272 274 275 275 276 278 278 278 277 277 278 280 283 288 292 296 297 296 295 298 300 295 285 278 273 271 271 269 268 268 268 269 271 273 269 265 268 279 288 288 283 281 282 283 286 292 296 297 297
221 221 221 222 223 224 224 224 224 224 225 227 228 229 230 231 232 233 234 235 236 237 239 240 241 242 244 245 247 248 250 251 255 262 267 269 270 272 272 273 275 275 275 274 276 277 279 282 285 288 291 293 293 291 291 296 302 296 285 279 276 274 270 267 265 264 265 267 269 268 266 266 269 277 283 283 279 278 281 283 286 291 295 295 296
221 222 223 223 223 224 225 225 225 225 226 227 228 228 230 231 232 233 234 235 237 238 239 240 242 243 244 246 247 249 250 252 255 259 264 267 269 271 272 274 276 273 269 269 273 276 280 283 285 285 286 287 287 286 287 293 299 293 282 277 277 274 269 267 266 264 264 267 269 267 265 267 273 278 281 280 277 278 282 285 288 291 293 293 294
220 222 223 224 225 225 225 225 226 226 226 226 227 227 229 231 232 233 234 235 236 238 239 241 243 245 246 247 248 249 250 252 254 257 262 265 268 269 271 273 273 269 267 269 273 276 279 282 284 285 287 287 286 286 287 290 292 285 277 276 278 276 272 270 268 266 266 268 268 265 265 269 275 279 280 280 280 282 285 286 288 291 294 294 295
219 221 222 224 226 226 226 226 227 226 226 227 227 227 228 230 232 233 234 235 236 237 239 241 243 245 247 248 249 250 251 251 252 256 260 263 265 266 266 266 267 267 267 269 271 273 274 276 279 284 289 290 288 286 285 283 279 274 272 273 276 277 276 273 270 268 269 268 265 263 264 269 275 278 279 279 282 284 285 286 289 292 294 295 296
219 220 221 223 225 227 227 228 228 228 227 227 227 227 228 229 231 233 234 235 236 237 238 240 243 245 247 248 249 250 251 251 252 256 259 262 263 264 263 261 260 261 263 266 270 272 272 272 276 283 290 293 290 283 276 274 275 276 276 275 275 275 275 273 270 268 268 267 264 263 263 266 271 275 276 278 282 285 286 287 289 291 292 293 294
220 220 221 223 225 226 227 228 229 229 229 229 228 228 229 229 230 232 234 235 236 237 239 241 243 245 247 248 248 249 250 251 252 255 258 260 260 261 261 260 258 258 260 265 272 275 273 272 276 282 288 290 288 277 264 260 266 273 276 277 277 276 275 272 269 267 266 265 264 263 262 264 270 275 277 280 284 286 287 287 289 289 290 291 292
220 221 221 223 224 225 227 228 229 230 231 230 230 229 229 230 231 232 233 235 237 238 240 241 243 245 246 247 248 249 249 250 252 254 256 258 259 259 260 261 261 261 263 268 276 279 277 276 279 283 284 284 280 268 254 250 255 260 262 264 266 269 270 270 268 266 266 265 264 263 264 267 272 277 278 280 283 285 286 287 287 288 288 289 291
220 221 222 223 224 225 226 227 228 230 231 231 231 230 230 230 231 232 233 235 236 238 240 242 243 245 246 247 248 249 250 250 252 253 253 254 255 256 257 259 262 264 265 268 273 275 274 273 274 276 277 276 272 266 260 260 261 261 259 257 255 255 257 259 261 263 264 265 266 266 266 268 273 276 277 279 281 283 284 285 286 286 287 289 291
220 220 221 223 224 225 226 227 228 229 231 232 232 232 231 231 231 232 233 235 236 238 239 241 242 244 245 246 248 249 250 250 251 251 251 252 253 253 254 256 260 263 263 264 265 265 265 265 266 267 267 267 267 266 265 265 265 263 261 259 258 256 255 255 257 260 261 263 265 266 266 268 273 276 277 277 279 281 283 284 285 286 287 289 291
220 220 221 222 224 225 226 227 228 229 231 232 233 233 233 232 232 233 234 235 236 237 239 240 242 243 245 246 247 249 250 251 251 250 250 250 251 253 256 257 258 260 260 259 258 259 261 263 266 267 266 265 264 264 263 263 263 262 260 260 261 260 258 256 257 258 260 262 263 263 264 269 274 275 275 276 279 280 282 283 284 285 287 288 290
Height
10989 10991 10993 10994 10995 10997 10999 11001 11003 11004 11005 11007 11009 11009 11010 11011 11012 11013 11014 11015 11016 11017 11018 11019 11019 11019 11019 11019 11020 11020 11020 11020 11020 11020 11019 11019 11018 11017 11017 11016 11016 11015 11015 11015 11015 11014 11013 11013 11012 11011 11010 11009 11007 11006 11005 11004 11004 11003 11002 11002 11001 11000 10999 10998 10997 10997 10996 10995 10995 10994 10993 10992 10991 10990 10989 10988 10987 10986 10985 10984 10983 10982 10980 10979 10977
10987 10989 10992 10993 10994 10996 10997 10999 11001 11002 11004 11006 11007 11008 11009 11010 11010 11011 11012 11013 11014 11015 11016 11017 11017 11018 11018 11018 11018 11018 11018 11018 11019 11019 11019 11018 11018 11017 11017 11016 11016 11015 11015 11015 11014 11014 11013 11012 11012 11011 11010 11009 11008 11006 11005 11004 11003 11003 11002 11002 11001 11000 10999 10998 10997 10997 10996 10995 10995 10994 10993 10992 10991 10990 10989 10988 10987 10986 10985 10983 10982 10980 10979 10977 10976
10985 10988 10990 10991 10993 10994 10996 10997 10999 11000 11002 11004 11005 11006 11007 11008 11009 11010 11011 11011 11012 11013 11014 11015 11015 11016 11016 11016 11017 11017 11017 11017 11017 11017 11017 11017 11017 11017 11017 11016 11016 11015 11015 11014 11014 11013 11013 11012 11011 11011 11010 11009 11008 11007 11006 11004 11003 11003 11002 11001 11001 11000 10999 10999 10997 10996 10996 10995 10994 10994 10993 10992 10991 10990 10989 10988 10987 10986 10985 10983 10981 10979 10977 10976 10975
10983 10985 10987 10989 10991 10993 10994 10995 10996 10998 11000 11002 11003 11004 11006 11007 11007 11008 11009 11009 11010 11011 11011 11012 11013 11014 11014 11014 11015 11015 11015 11015 11015 11015 11016 11016 11016 11016 11016 11016 11016 11015 11015 11014 11014 11013 11012 11011 11011 11010 11009 11008 11008 11007 11006 11005 11004 11003 11002 11001 11000 11000 10999 10998 10997 10996 10995 10994 10994 10993 10992 10991 10990 10989 10988 10987 10986 10985 10984 10983 10981 10979 10977 10976 10974
10981 10983 10985 10987 10989 10990 10991 10992 10993 10995 10997 10999 11001 11003 11004 11005 11006 11007 11007 11008 11008 11009 11009 11010 11011 11012 11012 11012 11013 11013 11014 11014 11014 11014 11014 11014 11014 11015 11015 11015 11015 11015 11014 11014 11013 11012 11012 11011 11010 11009 11008 11008 11007 11006 11005 11005 11004 11003 11002 11001 11000 10999 10998 10997 10997 10996 10995 10994 10993 10992 10991 10990 10989 10988 10987 10986 10985 10984 10982 10981 10980 10978 10977 10975 10974
10980 10982 10983 10985 10987 10988 10989 10990 10990 10992 10995 10997 10999 11001 11002 11003 11004 11005 11006 11006 11007 11007 11008 11009 11010 11010 11011 11011 11011 11011 11012 11012 11012 11012 11012 11012 11013 11013 11013 11013 11014 11014 11013 11013 11012 11012 11011 11010 11009 11008 11007 11007 11006 11005 11004 11004 11003 11002 11001 11000 10999 10998 10997 10996 10996 10995 10994 10994 10993 10991 10990 10989 10988 10987 10986 10985 10984 10983 10981 10980 10979 10977 10976 10974 10973
10979 10981 10982 10984 10985 10986 10987 10988 10989 10991 10993 10996 10998 10999 11000 11001 11003 11004 11004 11005 11005 11005 11006 11007 11008 11009 11009 11009 11010 11010 11010 11010 11011 11011 11011 11011 11011 11011 11011 11012 11012 11012 11012 11012 11011 11011 11010 11009 11008 11008 11007 11006 11005 11004 11003 11003 11002 11001 11000 10999 10998 10997 10996 10995 10994 10994 10993 10992 10991 10990 10989 10988 10987 10986 10984 10983 10982 10981 10980 10979 10977 10976 10975 10973 10972
10978 10979 10981 10983 10984 10985 10986 10987 10988 10990 10992 10994 10996 10997 10998 10999 11001 11002 11003 11003 11003 11003 11004 11005 11006 11007 11007 11008 11008 11009 11009 11009 11009 11009 11010 11010 11010 11009 11009 11010 11010 11010 11010 11010 11010 11009 11009 11008 11007 11006 11006 11005 11004 11003 11002 11001 11001 11000 10999 10998 10997 10996 10995 10994 10993 10992 10991 10990 10990 10989 10988 10987 10986 10984 10983 10981 10980 10979 10978 10977 10976 10974 10973 10972 10971
10976 10977 10979 10980 10982 10984 10985 10987 10988 10989 10991 10993 10994 10995 10996 10997 10999 11000 11001 11001 11001 11002 11003 11003 11004 11005 11005 11006 11007 11007 11007 11008 11008 11008 11008 11008 11008 11008 11008 11008 11008 11007 11008 11008 11008 11007 11007 11007 11006 11005 11005 11004 11003 11002 11001 11000 10999 10998 10997 10996 10995 10994 10993 10992 10991 10990 10989 10988 10987 10986 10986 10984 10983 10982 10981 10980 10978 10977 10976 10975 10974 10973 10972 10970 10969
10974 10975 10976 10978 10980 10983 10984 10986 10987 10989 10990 10991 10992 10993 10994 10995 10997 10998 10998 10999 11000 11000 11001 11001 11002 11002 11003 11004 11005 11005 11006 11006 11006 11006 11007 11007 11007 11006 11006 11006 11005 11005 11005 11005 11005 11005 11005 11005 11004 11004 11003 11002 11002 11001 11000 10999 10998 10997 10996 10995 10994 10992 10991 10990 10989 10988 10987 10986 10985 10984 10983 10982 10981 10980 10979 10978 10977 10975 10974 10973 10973 10972 10970 10969 10967
10969 10972 10974 10976 10979 10981 10983 10985 10986 10987 10988 10989 10990 10991 10993 10994 10995 10996 10996 10997 10998 10999 10999 10999 10999 11000 11001 11002 11002 11003 11004 11005 11005 11005 11005 11005 11005 11005 11005 11004 11003 11003 11003 11003 11003 11003 11003 11003 11002 11002 11001 11001 11000 10999 10998 10997 10996 10995 10994 10993 10992 10991 10989 10988 10987 10986 10985 10984 10983 10982 10981 10979 10978 10977 10976 10976 10975 10974 10973 10971 10971 10970 10969 10967 10966
10965 10968 10971 10974 10977 10979 10981 10983 10984 10985 10986 10987 10988 10990 10991 10993 10994 10994 10995 10995 10996 10997 10998 10998 10998 10999 10999 11000 11000 11001 11002 11003 11003 11003 11003 11004 11004 11003 11003 11002 11002 11001 11001 11001 11000 11000 11000 11000 11000 11000 10999 10998 10998 10997 10996 10995 10995 10994 10993 10992 10991 10990 10988 10987 10986 10984 10983 10982 10981 10980 10978 10977 10976 10974 10973 10973 10973 10972 10970 10969 10968 10968 10967 10966 10965
10963 10965 10968 10971 10973 10975 10978 10980 10982 10983 10984 10985 10986 10988 10990 10991 10992 10993 10994 10995 10996 10996 10996 10997 10998 10998 10998 10999 10999 11000 11000 11001 11001 11001 11002 11002 11002 11002 11002 11001 11001 11000 10999 10999 10998 10998 10998 10998 10998 10997 10997 10996 10996 10995 10994 10993 10993 10992 10991 10990 10989 10988 10987 10986 10984 10983 10982 10981 10980 10978 10976 10975 10974 10972 10971 10970 10970 10969 10968 10967 10966 10966 10965 10964 10963
10960 10963 10966 10969 10971 10973 10975 10976 10978 10979 10981 10983 10984 10986 10987 10989 10990 10992 10993 10994 10995 10995 10996 10997 10997 10998 10998 10998 10998 10998 10999 10999 10999 11000 11000 11001 11001 11000 11000 11000 10999 10999 10998 10998 10997 10996 10996 10995 10995 10995 10994 10994 10993 10993 10992 10991 10991 10990 10990 10989 10988 10987 10986 10985 10983 10981 10979 10979 10978 10977 10975 10973 10971 10970 10969 10967 10967 10967 10966 10965 10964 10963 10963 10962 10961
10959 10963 10967 10970 10972 10974 10975 10975 10976 10976 10978 10979 10981 10983 10984 10986 10988 10990 10992 10993 10994 10995 10996 10996 10997 10997 10997 10997 10998 10998 10998 10998 10998 10998 10999 10999 10999 10999 10999 10999 10998 10998 10997 10996 10995 10995 10994 10994 10993 10993 10992 10992 10991 10990 10989 10989 10989 10988 10988 10987 10986 10985 10984 10983 10980 10978 10977 10976 10975 10974 10973 10970 10969 10968 10967 10966 10965 10964 10964 10963 10962 10961 10960 10960 10959
10959 10963 10968 10972 10974 10976 10977 10977 10976 10976 10976 10977 10978 10979 10980 10982 10984 10987 10989 10991 10992 10993 10994 10994 10995 10996 10996 10996 10996 10997 10997 10997 10997 10997 10997 10997 10997 10997 10997 10997 10997 10996 10996 10995 10994 10993 10993 10992 10992 10991 10991 10990 10989 10988 10987 10986 10986 10987 10986 10986 10985 10984 10983 10981 10977 10975 10974 10973 10972 10971 10970 10968 10966 10965 10965 10964 10962 10962 10961 10961 10960 10959 10958 10957 10956
10959 10962 10965 10968 10970 10973 10975 10976 10976 10975 10974 10974 10974 10974 10976 10977 10980 10983 10985 10987 10988 10989 10990 10992 10993 10994 10994 10994 10994 10995 10996 10996 10996 10996 10996 10996 10996 10996 10996 10996 10995 10995 10995 10994 10993 10992 10992 10991 10990 10990 10989 10989 10988 10986 10985 10984 10984 10984 10984 10983 10982 10982 10981 10978 10975 10973 10972 10970 10969 10967 10966 10965 10964 10963 10962 10961 10960 10959 10958 10958 10957 10956 10954 10954 10952
10947 10950 10952 10953 10955 10959 10963 10968 10970 10971 10970 10970 10970 10970 10972 10974 10976 10979 10981 10982 10984 10985 10987 10988 10989 10990 10991 10991 10991 10992 10994 10994 10994 10994 10994 10994 10994 10994 10994 10994 10993 10993 10993 10993 10992 10991 10991 10990 10989 10988 10988 10987 10986 10985 10983 10982 10982 10982 10981 10980 10980 10980 10979 10976 10973 10971 10970 10968 10966 10964 10963 10963 10962 10961 10960 10959 10957 10956 10955 10954 10954 10952 10951 10950 10949
10930 10934 10937 10939 10942 10946 10949 10953 10957 10960 10963 10964 10966 10967 10969 10970 10972 10974 10976 10977 10979 10981 10983 10984 10986 10987 10988 10989 10989 10990 10991 10992 10992 10992 10992 10992 10991 10991 10992 10992 10992 10992 10992 10991 10991 10990 10989 10988 10987 10987 10986 10986 10984 10983 10982 10980 10980 10980 10979 10978 10977 10977 10976 10973 10970 10969 10967 10965 10963 10961 10960 10960 10959 10958 10957 10956 10954 10952 10951 10950 10949 10948 10947 10946 10945
10921 10924 10928 10932 10936 10940 10942 10945 10948 10952 10956 10960 10962 10964 10966 10967 10969 10970 10972 10973 10975 10977 10979 10981 10982 10983 10985 10985 10986 10987 10988 10989 10990 10990 10990 10990 10989 10989 10989 10989 10989 10989 10989 10989 10989 10988 10988 10987 10986 10985 10984 10984 10983 10982 10980 10978 10978 10977 10977 10976 10975 10974 10972 10970 10967 10966 10964 10962 10960 10958 10958 10957 10956 10955 10954 10953 10951 10949 10948 10947 10945 10944 10942 10942 10941
10916 10919 10923 10927 10931 10936 10939 10942 10944 10948 10951 10955 10958 10960 10962 10964 10966 10967 10968 10970 10972 10973 10975 10977 10978 10980 10981 10982 10982 10983 10985 10986 10987 10987 10987 10987 10987 10987 10987 10987 10987 10987 10986 10986 10986 10986 10985 10984 10984 10983 10982 10981 10981 10980 10978 10977 10976 10975 10974 10974 10972 10971 10969 10967 10965 10963 10961 10960 10958 10956 10955 10954 10953 10953 10952 10950 10948 10946 10945 10944 10942 10941 10939 10938 10937
10911 10914 10918 10923 10928 10934 10939 10941 10943 10944 10947 10949 10952 10954 10957 10960 10963 10964 10966 10967 10969 10970 10971 10973 10974 10976 10977 10978 10978 10979 10981 10983 10984 10984 10984 10984 10984 10985 10984 10984 10984 10984 10983 10983 10983 10983 10982 10981 10981 10980 10979 10978 10978 10977 10976 10975 10974 10973 10972 10971 10970 10968 10967 10965 10963 10961 10959 10957 10956 10954 10953 10952 10951 10950 10948 10947 10945 10943 10942 10941 10939 10938 10937 10936 10934
10905 10908 10913 10918 10922 10928 10933 10937 10938 10939 10941 10943 10946 10948 10952 10955 10958 10961 10963 10965 10966 10967 10968 10970 10971 10972 10973 10974 10974 10976 10977 10979 10980 10981 10981 10981 10981 10982 10982 10982 10982 10982 10981 10980 10980 10980 10979 10978 10978 10977 10976 10976 10975 10975 10974 10973 10972 10970 10969 10968 10967 10966 10964 10962 10960 10958 10956 10955 10953 10951 10950 10949 10947 10946 10944 10942 10941 10940 10939 10937 10936 10935 10934 10933 10932
10898 10902 10906 10910 10914 10918 10922 10927 10929 10930 10933 10937 10940 10942 10946 10949 10952 10955 10958 10960 10962 10963 10965 10966 10967 10968 10969 10970 10971 10972 10974 10975 10976 10977 10978 10978 10978 10978 10979 10979 10980 10979 10978 10977 10977 10977 10976 10976 10975 10974 10973 10973 10972 10972 10971 10970 10969 10968 10966 10965 10964 10963 10961 10959 10957 10955 10954 10952 10950 10948 10947 10946 10944 10942 10941 10939 10937 10936 10935 10934 10933 10932 10931 10930 10929
10890 10894 10898 10902 10905 10906 10909 10914 10919 10921 10925 10930 10933 10936 10940 10943 10946 10949 10952 10955 10957 10959 10960 10961 10962 10963 10965 10966 10967 10969 10970 10972 10973 10974 10974 10975 10974 10975 10975 10976 10976 10976 10975 10974 10974 10974 10973 10973 10972 10971 10970 10970 10969 10968 10968 10967 10966 10965 10963 10962 10961 10960 10958 10956 10955 10953 10951 10950 10948 10946 10945 10944 10942 10940 10938 10936 10935 10933 10932 10931 10930 10930 10929 10928 10927
10882 10886 10890 10894 10897 10898 10898 10902 10908 10912 10917 10922 10926 10929 10934 10937 10940 10943 10946 10949 10951 10953 10954 10955 10956 10957 10959 10960 10962 10965 10967 10968 10969 10970 10971 10971 10971 10971 10971 10972 10972 10972 10972 10971 10972 10972 10971 10969 10968 10967 10967 10966 10966 10965 10964 10963 10962 10961 10960 10958 10957 10956 10955 10953 10952 10950 10948 10946 10945 10943 10942 10940 10939 10937 10935 10933 10932 10931 10929 10928 10928 10928 10927 10926 10925
10873 10877 10881 10885 10889 10892 10893 10895 10900 10905 10910 10915 10919 10923 10927 10931 10935 10938 10940 10942 10944 10946 10948 10949 10950 10951 10953 10955 10958 10961 10964 10965 10966 10966 10967 10968 10967 10967 10967 10967 10967 10967 10968 10968 10968 10968 10967 10965 10964 10963 10962 10963 10962 10961 10960 10959 10958 10956 10955 10954 10953 10952 10951 10950 10949 10947 10945 10943 10941 10940 10938 10937 10935 10933 10932 10930 10929 10928 10926 10926 10926 10925 10924 10923 10922
10864 10868 10872 10876 10880 10884 10887 10889 10893 10898 10903 10908 10912 10916 10921 10925 10928 10931 10934 10935 10937 10939 10942 10944 10946 10946 10948 10951 10954 10957 10960 10960 10961 10962 10963 10963 10963 10963 10962 10961 10961 10962 10963 10964 10964 10964 10963 10960 10959 10958 10958 10958 10957 10956 10955 10955 10954 10952 10950 10949 10949 10948 10947 10946 10945 10944 10942 10940 10938 10936 10934 10932 10931 10930 10929 10928 10927 10926 10924 10923 10923 10922 10921 10920 10919
10854 10858 10864 10868 10872 10876 10880 10883 10887 10891 10896 10900 10904 10909 10913 10918 10922 10925 10927 10929 10931 10933 10936 10939 10941 10942 10944 10946 10950 10953 10954 10954 10955 10956 10958 10958 10958 10958 10958 10957 10956 10957 10958 10959 10960 10959 10958 10956 10954 10953 10953 10953 10952 10951 10950 10950 10949 10947 10945 10944 10944 10943 10942 10941 10940 10940 10939 10937 10935 10932 10930 10928 10927 10927 10928 10927 10926 10924 10923 10921 10920 10920 10919 10918 10916
10845 10849 10855 10860 10865 10869 10873 10876 10880 10884 10888 10893 10897 10902 10906 10910 10915 10918 10920 10923 10925 10927 10930 10933 10935 10937 10939 10941 10944 10946 10947 10948 10949 10950 10951 10951 10952 10953 10954 10953 10952 10952 10952 10953 10954 10953 10952 10951 10949 10949 10948 10948 10948 10946 10945 10944 10944 10942 10940 10940 10939 10937 10936 10935 10934 10934 10935 10934 10932 10929 10925 10922 10922 10924 10926 10927 10925 10923 10921 10919 10917 10916 10915 10914 10913
10835 10840 10845 10850 10855 10860 10864 10868 10873 10877 10881 10886 10890 10894 10899 10903 10908 10911 10913 10916 10918 10921 10924 10926 10928 10931 10934 10936 10937 10939 10941 10941 10943 10944 10945 10946 10947 10948 10949 10949 10948 10948 10948 10948 10948 10946 10945 10945 10944 10943 10943 10943 10943 10941 10940 10939 10938 10937 10935 10934 10932 10930 10930 10930 10929 10929 10930 10930 10929 10926 10921 10919 10922 10927 10929 10929 10927 10922 10919 10916 10914 10912 10911 10911 10910
10825 10830 10835 10840 10845 10851 10856 10860 10865 10870 10874 10878 10883 10887 10892 10896 10900 10903 10906 10908 10911 10914 10917 10920 10922 10926 10929 10930 10931 10933 10935 10936 10937 10939 10940 10942 10943 10943 10944 10944 10944 10944 10944 10944 10942 10940 10939 10939 10939 10938 10938 10938 10937 10936 10935 10933 10933 10932 10929 10927 10926 10925 10925 10925 10926 10926 10926 10927 10926 10924 10918 10916 10921 10927 10930 10930 10928 10922 10917 10914 10911 10909 10908 10908 10908
10814 10820 10826 10832 10837 10843 10848 10853 10858 10862 10866 10871 10876 10880 10884 10888 10891 10895 10898 10901 10904 10907 10910 10913 10916 10919 10922 10924 10926 10928 10929 10931 10932 10934 10935 10937 10938 10939 10939 10940 10940 10940 10940 10939 10937 10935 10935 10935 10934 10934 10934 10933 10932 10931 10930 10929 10927 10925 10923 10921 10921 10920 10920 10921 10921 10920 10921 10922 10921 10920 10917 10913 10914 10920 10925 10927 10925 10919 10914 10912 10910 10907 10906 10906 10906
10804 10810 10817 10823 10829 10835 10841 10845 10850 10854 10858 10863 10867 10871 10876 10880 10883 10887 10891 10894 10896 10899 10903 10906 10910 10913 10915 10918 10920 10922 10924 10925 10926 10927 10928 10930 10933 10934 10934 10935 10935 10935 10935 10933 10932 10931 10931 10931 10930 10930 10930 10929 10927 10927 10926 10924 10922 10920 10918 10917 10916 10916 10916 10916 10914 10914 10915 10915 10915 10916 10915 10911 10910 10914 10918 10920 10918 10915 10911 10909 10907 10905 10903 10903 10903
10794 10800 10807 10813 10819 10825 10831 10836 10841 10846 10850 10854 10858 10863 10867 10872 10876 10879 10882 10885 10889 10892 10896 10899 10903 10905 10908 10911 10914 10916 10917 10918 10919 10920 10922 10924 10926 10928 10929 10929 10929 10929 10928 10928 10927 10926 10926 10926 10926 10925 10925 10924 10923 10922 10921 10919 10918 10916 10914 10912 10911 10911 10910 10909 10907 10907 10908 10910 10911 10911 10911 10908 10907 10909 10911 10911 10910 10908 10906 10905 10903 10902 10900 10899 10898
10783 10790 10797 10804 10810 10815 10821 10826 10832 10837 10841 10845 10850 10854 10858 10862 10867 10871 10874 10878 10881 10885 10888 10891 10894 10898 10901 10905 10907 10908 10909 10911 10912 10914 10916 10918 10920 10922 10923 10923 10923 10923 10923 10922 10921 10920 10920 10920 10920 10920 10919 10919 10918 10916 10915 10915 10914 10912 10910 10907 10905 10904 10904 10902 10901 10902 10903 10904 10905 10906 10906 10904 10902 10903 10903 10903 10902 10901 10900 10899 10899 10898 10896 10895 10894
10772 10779 10786 10793 10800 10805 10810 10816 10822 10828 10832 10837 10841 10845 10849 10853 10858 10863 10867 10870 10874 10877 10880 10883 10886 10890 10893 10896 10898 10900 10902 10904 10906 10908 10910 10913 10915 10916 10917 10917 10917 10917 10917 10916 10915 10914 10914 10914 10915 10915 10914 10913 10911 10910 10910 10910 10909 10907 10904 10901 10899 10898 10899 10899 10898 10897 10897 10898 10898 10899 10899 10898 10897 10897 10896 10896 10895 10895 10894 10894 10894 10893 10892 10890 10889
10760 10767 10775 10782 10789 10794 10798 10804 10811 10817 10823 10828 10832 10836 10841 10845 10850 10854 10858 10862 10866 10869 10872 10875 10879 10881 10884 10887 10889 10892 10896 10900 10901 10902 10905 10907 10909 10910 10910 10911 10911 10911 10910 10909 10909 10909 10908 10908 10909 10909 10908 10906 10906 10905 10904 10904 10902 10900 10898 10896 10894 10892 10892 10892 10892 10892 10893 10893 10892 10892 10892 10891 10891 10891 10891 10891 10890 10889 10888 10887 10887 10889 10889 10887 10885
10749 10755 10763 10769 10776 10781 10787 10793 10800 10807 10813 10818 10823 10828 10833 10838 10842 10846 10850 10854 10858 10861 10864 10867 10870 10872 10875 10878 10882 10887 10892 10895 10896 10896 10898 10901 10903 10904 10905 10906 10905 10904 10903 10903 10903 10904 10904 10904 10904 10904 10903 10901 10900 10900 10899 10897 10895 10893 10892 10891 10888 10885 10885 10885 10886 10887 10887 10887 10887 10887 10886 10885 10884 10885 10886 10886 10885 10884 10883 10882 10881 10882 10881 10880 10879
10736 10743 10750 10757 10763 10770 10777 10784 10790 10796 10802 10807 10813 10819 10824 10830 10834 10838 10842 10846 10850 10852 10856 10859 10861 10864 10868 10873 10877 10881 10886 10888 10889 10889 10892 10896 10898 10899 10899 10900 10900 10899 10898 10898 10898 10899 10900 10900 10899 10898 10897 10895 10895 10893 10892 10890 10889 10886 10886 10885 10881 10878 10879 10880 10880 10880 10881 10882 10882 10882 10880 10879 10878 10879 10882 10883 10882 10880 10879 10878 10876 10875 10873 10872 10871
10724 10732 10739 10745 10752 10760 10768 10774 10781 10787 10792 10798 10803 10809 10815 10820 10825 10830 10834 10838 10841 10844 10848 10851 10854 10858 10863 10868 10871 10874 10878 10880 10881 10883 10886 10890 10892 10893 10893 10894 10894 10894 10893 10893 10893 10894 10895 10894 10893 10892 10891 10890 10889 10887 10885 10884 10883 10880 10877 10877 10875 10873 10872 10873 10874 10874 10874 10875 10876 10875 10874 10873 10873 10874 10877 10880 10879 10875 10873 10872 10869 10867 10865 10864 10863
10712 10720 10727 10734 10741 10749 10756 10763 10771 10777 10783 10788 10794 10800 10805 10810 10816 10821 10825 10829 10833 10837 10840 10843 10847 10851 10855 10859 10861 10865 10869 10873 10875 10877 10880 10883 10885 10886 10887 10887 10888 10888 10887 10887 10887 10888 10889 10888 10887 10886 10885 10884 10883 10880 10878 10878 10878 10874 10868 10866 10867 10866 10865 10865 10866 10866 10866 10867 10868 10868 10866 10866 10867 10867 10868 10869 10868 10865 10863 10862 10861 10858 10857 10855 10854
10701 10709 10716 10723 10730 10737 10744 10751 10759 10767 10773 10779 10785 10790 10795 10800 10806 10812 10816 10821 10825 10829 10832 10835 10838 10842 10846 10849 10853 10857 10861 10865 10868 10872 10874 10877 10879 10880 10881 10882 10882 10881 10880 10880 10880 10880 10881 10881 10880 10879 10878 10877 10876 10873 10871 10873 10874 10869 10860 10857 10859 10860 10858 10857 10858 10859 10860 10861 10861 10860 10860 10859 10859 10858 10857 10855 10854 10853 10852 10852 10851 10851 10850 10848 10846
10690 10698 10705 10711 10718 10725 10732 10739 10747 10755 10763 10769 10775 10780 10785 10790 10796 10802 10807 10812 10817 10821 10824 10827 10830 10833 10837 10841 10845 10848 10853 10858 10862 10866 10868 10870 10873 10875 10877 10877 10876 10874 10873 10872 10871 10870 10871 10871 10870 10871 10871 10869 10867 10866 10865 10868 10871 10867 10857 10850 10851 10851 10850 10850 10851 10853 10855 10855 10854 10854 10853 10851 10849 10847 10846 10845 10845 10844 10842 10840 10840 10840 10840 10839 10837
10680 10688 10695 10700 10706 10714 10721 10728 10735 10743 10751 10758 10764 10770 10775 10780 10786 10791 10797 10803 10808 10812 10815 10818 10821 10824 10828 10832 10836 10840 10845 10850 10855 10859 10862 10864 10866 10868 10870 10871 10871 10869 10866 10864 10862 10860 10860 10860 10860 10861 10862 10861 10860 10857 10854 10856 10861 10862 10856 10850 10847 10845 10843 10842 10842 10844 10846 10847 10847 10847 10846 10843 10840 10838 10837 10837 10838 10837 10834 10831 10830 10829 10829 10828 10827
10669 10678 10685 10690 10696 10703 10711 10718 10724 10731 10738 10746 10753 10759 10765 10771 10776 10782 10787 10793 10798 10802 10806 10809 10812 10815 10819 10823 10828 10833 10839 10844 10848 10851 10854 10856 10857 10858 10859 10862 10863 10861 10857 10855 10853 10850 10848 10848 10849 10851 10852 10853 10854 10852 10847 10845 10849 10852 10850 10847 10845 10843 10839 10837 10835 10835 10835 10836 10838 10839 10839 10839 10838 10834 10830 10829 10829 10828 10826 10824 10822 10821 10820 10819 10818
10657 10666 10674 10680 10686 10693 10700 10707 10713 10719 10725 10733 10740 10747 10754 10761 10767 10773 10778 10783 10787 10792 10796 10800 10803 10806 10811 10815 10820 10826 10832 10836 10839 10842 10844 10846 10848 10848 10848 10848 10849 10850 10849 10847 10845 10840 10837 10837 10840 10843 10844 10845 10845 10844 10843 10845 10847 10847 10845 10843 10841 10838 10833 10830 10828 10827 10826 10827 10828 10829 10830 10831 10831 10828 10824 10821 10819 10818 10816 10815 10814 10813 10811 10810 10809
10645 10654 10663 10670 10676 10683 10689 10696 10702 10707 10713 10720 10727 10735 10743 10750 10757 10763 10768 10772 10777 10781 10786 10790 10794 10798 10802 10807 10811 10817 10823 10827 10829 10832 10834 10836 10837 10838 10837 10837 10838 10841 10842 10840 10837 10832 10829 10829 10830 10832 10835 10836 10836 10836 10837 10840 10842 10842 10841 10839 10837 10832 10826 10821 10819 10818 10818 10818 10818 10819 10820 10821 10820 10818 10815 10812 10810 10809 10807 10806 10805 10803 10802 10800 10799
10634 10643 10651 10659 10666 10672 10678 10685 10691 10696 10701 10708 10715 10723 10731 10739 10746 10753 10758 10763 10767 10771 10776 10780 10785 10789 10794 10798 10803 10808 10814 10818 10820 10822 10825 10827 10828 10829 10831 10831 10831 10833 10833 10832 10830 10828 10827 10827 10827 10826 10826 10827 10828 10829 10830 10832 10832 10832 10831 10830 10829 10825 10820 10815 10812 10811 10811 10810 10810 10809 10810 10810 10809 10807 10805 10804 10802 10800 10798 10796 10795 10793 10791 10790 10788
10622 10631 10639 10647 10655 10661 10668 10674 10680 10685 10690 10696 10704 10712 10720 10727 10735 10741 10747 10752 10757 10762 10766 10771 10775 10779 10784 10789 10793 10798 10803 10808 10810 10813 10817 10819 10821 10824 10826 10825 10825 10825 10825 10825 10824 10823 10821 10821 10820 10819 10818 10818 10818 10818 10820 10822 10822 10822 10820 10819 10818 10816 10812 10809 10806 10804 10803 10803 10803 10802 10801 10800 10798 10797 10795 10794 10792 10790 10788 10786 10784 10782 10780 10779 10777
10610 10620 10628 10635 10643 10650 10657 10663 10669 10674 10680 10686 10693 10700 10708 10715 10723 10729 10735 10741 10747 10752 10756 10761 10765 10769 10774 10779 10783 10787 10791 10796 10800 10805 10809 10812 10815 10817 10818 10818 10819 10820 10818 10817 10817 10816 10814 10811 10809 10808 10808 10808 10806 10806 10807 10809 10811 10811 10810 10809 10808 10806 10804 10802 10800 10797 10795 10795 10794 10794 10792 10791 10789 10787 10785 10783 10782 10780 10778 10776 10774 10772 10770 10768 10766